Regional Weather Roundup
Issued by NWS State College, PA

Home | Current Version | Previous Version | Text Only | Print | Product List | Glossary On
Versions: 1 2 3 4 5 6 7 8 9 10 11 12 13 14 15 16 17 18 19 20 21 22 23 24 25 26 27 28 29 30 31 32 33 34 35 36 37 38 39 40 41 42 43 44 45 46 47 48 49 50
000
ASUS41 KCTP 062203
RWRCTP

REGIONAL WEATHER ROUNDUP
NATIONAL WEATHER SERVICE STATE COLLEGE PA
600 PM EDT MON JUL 06 2015

Note: "fair" indicates few or no clouds below 12,000 feet with no
significant weather and/or obstructions to visibility.

* = STATION THAT DOES NOT REPORT PRECIPITATION /E.G. RAIN...SNOW...ETC/
    THUNDER OR FOG.

PAZ002>004-007>009-013>016-020>023-029>032-062300-
WESTERN PENNSYLVANIA

CITY           SKY/WX    TMP DP  RH WIND       PRES   REMARKS
ERIE           MOSUNNY   76  63  64 E3        30.01F
MEADVILLE      MOSUNNY   78  65  63 VRB3      30.05F
FRANKLIN*      PTSUNNY   75  66  73 SE7       30.06S
NEW CASTLE     FAIR      80  70  71 CALM      30.04S
BEAVER COUNTY  MOSUNNY   77  68  73 S3        30.04S
BUTLER*        MOSUNNY   79  66  65 CALM      30.05F
PITTSBURGH INT PTSUNNY   81  66  60 CALM      30.03S
PITTSBURGH     PTSUNNY   79  63  57 SE5       30.03R
INDIANA*       PTSUNNY   77  72  83 SE8       30.09S
LATROBE        MOSUNNY   77  72  83 CALM      30.05S
WASHINGTON CO* NOT AVBL
$$

PAZ004>006-010>012-017>019-024>028-033>037-041-042-045-046-049>053-062300-
CENTRAL PENNSYLVANIA

CITY           SKY/WX    TMP DP  RH WIND       PRES   REMARKS
BRADFORD       CLOUDY    74  65  73 S10G17    30.08F
DUBOIS         CLOUDY    76  69  79 E7        30.07F
CLEARFIELD     CLOUDY    73  67  81 E3        30.08F
JOHNSTOWN      PTSUNNY   72  64  76 SE8       30.08F
ALTOONA        CLOUDY    73  68  84 E5        30.08F
STATE COLLEGE  LGT RAIN  73  70  88 CALM      30.08F
WILLIAMSPORT   PTSUNNY   81  67  62 SE7       30.04F
SELINSGROVE    PTSUNNY   82  69  64 CALM      30.05F
FT INDIANTOWN  NOT AVBL
CAPITAL CITY   MOSUNNY   82  73  74 E7        30.03F
HARRISBURG     MOSUNNY   82  71  69 SE3       30.02F
YORK           MOSUNNY   81  70  69 SE9       30.04F
$$

PAZ038>040-043-044-047-048-054-055-060>062-067>071-062300-
EASTERN PENNSYLVANIA

CITY           SKY/WX    TMP DP  RH WIND       PRES   REMARKS
SCRANTON       PTSUNNY   82  65  56 SE5       30.09F
MOUNT POCONO   PTSUNNY   76  63  64 SE10      30.16F
ALLENTOWN      TSTM      75  72  88 NE9G20    30.08F VSB 1/2
QUAKERTOWN*    MOCLDY    82  73  74 CALM      30.09F
READING        PTSUNNY   84  70  62 SE8       30.05S
LANCASTER      MOSUNNY   81  69  67 S8        30.05F
COATESVILLE    MOCLDY    81  73  78 SE6       30.08F
POTTSTOWN      PTSUNNY   82  70  66 VRB3      30.08F
BLUE BELL      PTSUNNY   84  72  65 E6        30.07S
DOYLESTOWN     MOSUNNY   81  69  67 SE3       30.08S
WILLOW GROVE   NOT AVBL
NORTH PHILA    MOSUNNY   86  70  58 SE8       30.08F
PHILADELPHIA   PTSUNNY   85  70  60 SE8       30.06F
$$


USA.gov is the U.S. government's official web portal to all federal, state and local government web resources and services.